Wind_Speed
29 29 29 28 28 27 27 26 25 25 24 24 24 25 25 25 25 25 25 25 25 25 25 26 26 26 26 27 27 27 27 27 27 27 27 28 28 29 29 30 29 30 31
30 29 29 28 28 28 28 28 27 26 26 25 25 26 26 26 26 25 25 25 26 26 27 26 27 27 27 27 28 28 28 27 28 28 28 29 29 29 30 31 31 31 31
31 30 30 29 28 28 28 28 28 27 27 26 26 26 26 27 26 26 26 26 27 27 27 27 27 27 28 28 28 28 28 28 28 29 30 30 31 31 31 31 31 31 30
31 31 30 30 29 28 28 28 28 28 27 27 26 26 27 28 28 27 27 27 27 28 28 28 28 28 28 29 29 29 29 29 30 30 30 31 31 32 32 31 31 31 30
32 32 31 30 30 29 29 28 29 28 28 27 27 27 28 28 29 29 29 29 28 28 29 29 29 29 29 29 30 30 30 30 30 30 31 31 32 32 32 32 32 32 32
32 32 32 31 30 30 29 29 30 30 30 29 29 28 29 29 30 30 30 30 29 30 29 29 29 30 30 30 30 31 31 31 31 32 32 32 33 33 33 32 32 32 32
32 32 33 32 32 31 30 30 30 31 30 31 30 30 30 29 30 30 30 31 31 32 31 31 31 31 31 31 32 32 32 33 33 33 33 34 34 33 33 32 32 32 32
34 34 34 34 33 32 32 31 30 31 32 32 32 33 32 31 31 31 30 30 31 32 32 32 33 33 33 34 34 33 33 34 34 34 34 35 34 34 33 33 33 33 33
34 34 33 33 34 34 33 33 32 33 34 34 34 34 34 34 33 33 32 32 33 33 33 33 34 34 35 35 35 35 35 35 35 35 36 36 35 35 35 35 35 35 35
34 34 34 34 33 34 35 35 35 34 35 36 36 35 35 35 35 36 36 35 36 36 36 36 35 36 37 37 37 37 37 37 37 37 37 37 37 37 37 37 37 37 38
34 34 35 35 35 36 36 37 36 36 36 36 37 37 37 37 37 37 38 37 37 37 37 37 37 38 38 39 39 39 39 39 38 39 39 39 39 39 39 39 39 39 39
35 35 36 36 37 37 38 38 38 38 37 37 37 38 38 38 39 38 39 39 39 39 39 39 39 40 39 40 40 40 41 41 41 41 41 41 41 41 41 41 42 42 42
35 36 37 38 38 37 38 39 39 39 39 39 39 40 41 40 40 40 40 40 40 40 41 40 40 40 41 41 42 42 43 43 43 43 43 43 43 43 43 44 44 44 44
37 37 38 38 39 39 40 40 40 40 41 41 41 41 42 42 42 42 42 42 42 41 41 42 42 42 42 43 44 44 45 45 45 45 46 46 45 45 45 45 45 45 45
38 38 39 39 40 40 40 41 42 42 42 42 41 42 42 42 42 43 44 44 44 44 43 43 44 45 45 45 45 46 46 47 47 47 47 48 48 47 47 47 47 46 47
39 40 40 41 41 41 41 42 42 43 44 43 43 43 43 44 44 45 46 46 47 46 46 46 46 47 47 47 47 47 47 48 48 49 49 49 49 49 49 49 49 48 47
40 41 42 42 43 44 44 43 43 43 44 45 45 45 45 45 45 46 47 48 49 49 48 48 49 50 50 50 50 49 49 50 50 50 50 50 50 50 50 50 50 50 49
41 42 42 44 44 45 45 45 44 44 45 45 46 47 46 46 47 47 48 49 51 51 51 51 51 51 52 53 53 53 52 52 52 52 52 52 52 51 51 51 51 50 50
42 43 43 43 44 44 45 46 46 46 46 47 48 48 47 47 47 48 49 50 51 52 53 53 52 53 53 55 55 55 55 54 54 54 54 54 53 52 52 51 51 51 51
43 43 44 44 45 45 46 47 47 48 48 48 48 49 49 49 49 50 51 51 52 53 54 54 54 55 55 56 57 57 57 56 56 55 55 55 54 54 53 52 52 52 52
46 46 45 46 46 47 48 49 49 49 49 48 48 49 50 51 51 51 53 53 54 55 56 56 56 56 56 57 57 58 58 57 56 55 55 54 54 54 54 53 53 52 52
46 47 47 47 48 49 50 51 51 50 50 50 50 51 52 53 53 54 55 56 57 57 58 58 58 58 57 57 57 58 57 57 56 56 56 55 56 55 54 54 53 52 51
48 48 48 48 49 49 50 51 52 52 52 52 53 54 55 55 56 57 58 59 59 59 59 59 59 58 58 58 58 58 58 58 57 57 56 55 55 55 54 54 54 53 52
49 50 50 50 51 51 52 52 52 53 53 54 55 55 56 57 57 58 58 59 59 59 59 59 59 59 59 58 58 59 59 58 57 56 56 55 55 54 54 53 52 52 51
51 50 50 51 51 52 52 53 53 54 54 54 55 55 56 57 58 59 59 59 59 59 59 59 59 59 59 59 58 57 57 57 56 55 55 55 54 53 52 51 51 50 49
50 50 51 51 51 52 52 53 54 54 55 55 55 55 56 57 57 58 59 59 59 58 58 58 59 58 58 57 57 56 56 56 56 54 54 53 52 52 50 49 49 48 47
Wind_Direction
247 249 250 251 252 255 258 261 262 264 266 268 270 271 271 272 273 274 274 276 277 278 279 281 283 285 287 288 290 289 289 290 290 290 291 292 292 291 290 289 289 287 285
247 250 250 250 252 254 257 260 262 264 266 268 270 272 271 271 272 273 274 276 277 278 280 282 284 286 287 288 290 289 289 288 289 290 291 291 292 291 291 290 289 288 285
247 249 250 251 251 253 256 259 262 263 265 267 269 271 271 271 271 272 274 276 278 279 280 281 283 285 287 288 289 290 289 288 289 289 290 290 291 291 290 290 290 289 286
247 249 251 251 251 252 255 258 260 262 264 266 268 271 272 271 271 271 273 275 277 279 279 280 282 284 286 287 288 289 289 288 288 289 290 290 290 290 289 289 289 289 287
247 248 250 251 252 252 256 259 262 263 264 266 268 271 272 272 272 272 273 274 276 278 278 278 281 283 285 286 288 289 289 288 289 289 290 290 290 290 289 289 289 289 287
246 247 250 251 252 254 258 260 261 263 264 266 269 270 272 272 272 272 272 273 275 277 278 278 280 282 284 286 288 288 288 288 288 289 289 289 289 290 289 289 289 289 288
246 247 248 250 252 255 258 260 262 265 266 266 268 270 273 273 272 273 273 273 275 276 277 278 280 282 283 285 286 287 287 288 288 289 289 289 289 290 289 289 288 288 289
247 248 249 251 254 256 259 261 263 265 266 268 269 269 272 273 274 273 272 274 275 276 277 278 279 280 282 284 285 285 286 287 288 288 289 289 289 289 288 288 288 288 289
247 249 251 255 259 258 260 262 264 265 266 268 269 270 272 271 272 273 272 273 275 277 279 280 280 281 282 283 283 284 285 286 287 287 288 288 289 288 288 288 288 288 289
251 252 253 258 260 260 261 261 262 264 266 267 268 270 271 271 270 271 271 272 274 276 277 279 280 280 281 281 282 283 284 284 286 286 287 287 287 288 288 288 288 289 289
253 254 256 259 260 261 262 262 264 267 267 267 267 269 270 271 272 272 272 272 273 275 276 277 278 279 280 281 282 282 282 283 284 286 286 286 287 287 287 288 288 289 289
255 256 257 259 260 262 261 262 264 266 267 268 268 270 270 271 272 273 273 272 273 273 275 276 277 278 279 280 281 282 282 282 284 285 285 285 285 286 286 287 288 288 288
257 257 258 260 261 263 264 264 263 265 266 268 269 271 271 272 272 273 273 273 273 273 274 275 276 277 278 279 280 282 282 283 283 284 284 284 284 286 286 287 288 288 288
257 258 259 261 262 264 266 265 264 265 266 267 269 270 272 272 272 273 273 273 272 272 274 275 276 277 279 279 280 281 282 282 283 283 283 284 285 285 285 286 286 287 287
259 260 261 262 263 265 267 267 266 265 266 268 269 270 272 273 273 273 272 272 273 272 273 275 276 276 277 279 279 280 281 281 282 282 283 283 283 284 285 285 285 286 286
261 262 263 264 265 265 266 267 267 267 267 267 268 271 272 273 273 272 272 272 273 273 273 274 275 276 277 278 279 280 280 281 281 281 282 282 283 284 284 284 284 285 285
263 264 265 265 266 266 266 266 266 267 269 269 270 271 272 272 273 272 272 272 273 274 274 275 275 276 277 278 279 280 280 281 281 281 281 281 283 284 284 284 284 284 284
265 266 267 267 267 268 267 266 267 268 270 271 271 271 271 272 272 273 273 274 274 275 275 276 277 278 278 279 279 280 280 280 281 281 282 282 282 283 283 284 284 284 284
266 267 267 267 268 268 268 268 269 270 271 271 271 271 271 272 272 273 274 275 276 276 277 277 278 279 279 280 280 280 280 281 281 282 282 281 281 282 282 283 283 284 284
268 267 267 267 268 268 268 268 269 270 271 271 271 271 271 272 272 273 274 275 276 277 277 278 278 279 280 280 280 280 281 281 281 281 281 281 281 281 282 282 283 283 283
269 269 268 268 268 268 268 269 269 270 271 271 271 271 271 272 273 274 275 275 276 277 278 278 279 280 280 281 281 281 281 281 281 281 280 280 281 281 281 282 282 281 281
270 270 270 270 269 270 270 270 270 270 270 271 271 271 272 273 274 275 276 276 277 277 278 278 279 280 280 280 280 280 281 280 281 281 280 279 280 280 281 281 280 280 279
270 271 271 271 272 272 271 271 271 270 270 271 272 273 274 274 275 276 277 277 278 278 279 279 280 280 280 280 279 279 280 280 280 281 280 280 280 280 280 280 279 278 278
271 271 272 273 273 273 274 273 272 272 272 272 273 274 274 275 276 276 277 277 278 279 279 280 281 280 280 279 279 278 278 279 280 280 279 279 279 279 280 279 279 278 277
271 271 272 273 273 274 274 275 274 274 274 274 274 274 274 275 275 276 277 277 278 279 279 280 280 280 279 279 279 279 278 278 278 278 278 279 278 278 278 278 278 277 277
271 272 272 273 273 274 274 274 274 275 275 275 275 275 275 275 275 276 276 278 279 279 279 279 280 280 279 278 279 279 278 278 278 278 278 278 277 277 276 276 277 277 277
Height
5803 5805 5807 5809 5812 5814 5816 5817 5819 5820 5821 5822 5822 5823 5823 5824 5824 5824 5825 5825 5825 5825 5824 5824 5824 5823 5822 5821 5821 5820 5819 5817 5816 5815 5815 5813 5812 5811 5810 5809 5808 5807 5806
5796 5798 5800 5803 5805 5807 5810 5811 5813 5814 5815 5816 5817 5817 5817 5818 5818 5819 5819 5819 5819 5819 5819 5818 5818 5817 5817 5816 5815 5814 5813 5812 5811 5810 5808 5807 5806 5805 5803 5802 5801 5800 5798
5789 5791 5794 5796 5799 5801 5803 5805 5807 5808 5809 5810 5811 5811 5811 5812 5812 5813 5813 5813 5813 5813 5813 5813 5812 5812 5811 5810 5809 5808 5807 5806 5805 5803 5802 5801 5799 5798 5797 5795 5794 5793 5791
5783 5785 5788 5790 5793 5795 5797 5799 5800 5802 5803 5804 5804 5805 5805 5806 5806 5807 5807 5807 5807 5807 5807 5806 5806 5805 5804 5804 5803 5802 5800 5799 5798 5797 5795 5794 5793 5791 5790 5788 5787 5786 5784
5777 5779 5781 5784 5786 5788 5790 5792 5794 5795 5796 5797 5798 5798 5799 5799 5800 5800 5800 5800 5800 5800 5800 5800 5799 5799 5798 5797 5796 5795 5794 5792 5791 5790 5789 5787 5786 5784 5783 5781 5780 5778 5777
5770 5773 5775 5777 5780 5782 5784 5786 5787 5788 5790 5790 5791 5792 5792 5792 5793 5793 5794 5794 5794 5793 5793 5793 5792 5792 5791 5790 5789 5788 5787 5786 5784 5783 5782 5780 5778 5777 5775 5774 5772 5771 5769
5764 5766 5768 5771 5773 5775 5777 5778 5780 5781 5782 5783 5784 5785 5785 5785 5786 5786 5786 5787 5787 5786 5786 5786 5785 5785 5784 5783 5782 5781 5780 5778 5777 5775 5774 5772 5771 5769 5768 5766 5765 5763 5762
5756 5759 5761 5764 5766 5767 5769 5771 5772 5774 5775 5776 5777 5777 5778 5779 5779 5779 5779 5779 5779 5779 5779 5778 5778 5777 5777 5776 5775 5773 5772 5771 5769 5768 5766 5764 5763 5761 5760 5758 5757 5755 5754
5749 5751 5754 5756 5758 5760 5761 5763 5764 5766 5767 5768 5769 5770 5770 5771 5771 5771 5771 5771 5771 5771 5771 5770 5770 5769 5769 5768 5766 5765 5764 5763 5761 5760 5758 5756 5755 5753 5752 5750 5749 5747 5745
5742 5744 5746 5748 5750 5752 5754 5755 5757 5758 5759 5760 5760 5761 5762 5762 5762 5763 5763 5763 5763 5763 5762 5762 5761 5761 5760 5759 5758 5757 5756 5754 5753 5751 5750 5748 5746 5745 5743 5742 5740 5738 5737
5734 5736 5738 5740 5742 5743 5745 5747 5748 5749 5750 5751 5751 5752 5753 5753 5753 5754 5754 5754 5754 5754 5753 5753 5752 5751 5750 5750 5749 5748 5747 5745 5744 5742 5741 5739 5738 5736 5734 5732 5731 5729 5727
5726 5728 5730 5732 5733 5735 5736 5738 5739 5740 5740 5741 5742 5742 5743 5743 5744 5744 5744 5744 5744 5744 5743 5743 5742 5742 5741 5740 5739 5738 5737 5735 5734 5733 5731 5730 5728 5726 5725 5723 5721 5719 5717
5718 5719 5721 5723 5724 5726 5727 5728 5729 5730 5731 5731 5732 5733 5733 5733 5734 5734 5734 5734 5734 5734 5733 5733 5732 5731 5730 5729 5729 5728 5726 5725 5724 5723 5721 5720 5718 5716 5714 5712 5710 5708 5706
5709 5710 5712 5713 5715 5716 5717 5718 5719 5720 5721 5721 5722 5722 5722 5722 5723 5723 5723 5723 5723 5724 5723 5723 5721 5720 5720 5719 5718 5717 5716 5714 5713 5712 5710 5708 5707 5705 5703 5701 5699 5697 5695
5699 5701 5702 5704 5705 5706 5707 5708 5709 5709 5710 5711 5711 5712 5712 5711 5711 5711 5711 5711 5712 5712 5713 5712 5711 5709 5708 5707 5706 5705 5704 5703 5701 5700 5698 5697 5695 5693 5691 5689 5687 5685 5683
5690 5691 5692 5693 5694 5695 5696 5697 5698 5699 5700 5700 5700 5700 5700 5700 5700 5700 5699 5699 5699 5700 5700 5700 5699 5697 5696 5695 5694 5693 5691 5690 5689 5687 5686 5684 5682 5680 5679 5677 5675 5673 5671
5680 5681 5682 5682 5683 5684 5685 5686 5687 5688 5688 5689 5689 5689 5689 5689 5688 5688 5687 5687 5687 5686 5687 5688 5686 5685 5684 5682 5681 5680 5678 5677 5675 5674 5673 5671 5669 5667 5666 5664 5662 5660 5658
5670 5671 5671 5672 5672 5673 5674 5675 5676 5676 5677 5677 5677 5677 5677 5676 5676 5675 5675 5674 5674 5673 5673 5674 5673 5672 5671 5669 5667 5666 5665 5663 5662 5660 5659 5657 5656 5654 5652 5650 5648 5646 5644
5659 5659 5660 5660 5661 5661 5662 5663 5663 5664 5664 5664 5665 5664 5664 5663 5663 5662 5662 5661 5660 5659 5659 5659 5659 5658 5656 5654 5653 5652 5650 5649 5647 5646 5644 5643 5641 5639 5638 5636 5634 5632 5630
5647 5647 5648 5648 5649 5649 5650 5650 5650 5651 5651 5651 5651 5651 5651 5650 5650 5649 5648 5648 5646 5645 5644 5644 5643 5643 5641 5639 5638 5637 5636 5634 5633 5631 5629 5627 5626 5624 5623 5621 5620 5618 5616
5635 5635 5635 5635 5636 5636 5636 5636 5637 5637 5637 5637 5637 5637 5637 5636 5635 5635 5634 5633 5632 5630 5629 5628 5628 5627 5625 5624 5622 5621 5620 5619 5618 5616 5614 5613 5611 5609 5608 5606 5604 5603 5601
5622 5622 5622 5622 5622 5623 5622 5622 5622 5623 5623 5623 5623 5622 5622 5622 5621 5620 5618 5617 5616 5615 5614 5612 5611 5610 5609 5607 5606 5604 5603 5603 5603 5602 5599 5598 5595 5594 5593 5591 5589 5588 5586
5609 5609 5609 5609 5609 5609 5608 5608 5608 5608 5608 5608 5608 5607 5607 5606 5605 5604 5603 5602 5600 5598 5597 5596 5595 5593 5592 5591 5589 5588 5587 5586 5586 5584 5582 5582 5580 5578 5577 5575 5574 5573 5571
5595 5595 5595 5595 5594 5594 5594 5593 5593 5593 5593 5593 5592 5591 5591 5590 5589 5588 5587 5586 5584 5583 5581 5579 5579 5577 5575 5573 5571 5571 5570 5569 5569 5568 5565 5565 5564 5562 5561 5559 5558 5557 5556
5581 5580 5580 5580 5579 5579 5578 5578 5578 5578 5578 5577 5577 5576 5575 5574 5573 5571 5570 5570 5569 5567 5564 5563 5561 5559 5558 5556 5554 5553 5553 5552 5553 5552 5550 5548 5548 5547 5546 5544 5543 5542 5541
5565 5565 5565 5565 5564 5564 5563 5563 5562 5562 5562 5562 5561 5560 5558 5557 5556 5554 5553 5553 5552 5551 5548 5547 5545 5543 5541 5540 5538 5537 5536 5535 5535 5535 5534 5532 5532 5531 5531 5531 5528 5527 5527